[[{"header":{"parameterUnit":"m.s-1","parameterCategory":1,"la1":30.2991,"la2":30.254,"lo1":-89.0895,"lo2":-89.0444,"dy":0.0017,"dx":0.0017,"nx":28,"ny":28,"refTime":"2024-02-26T09:00:00:Z","depth":0,"parameterNumber":2,"parameterNumberName":"U-component_of_WINDS"},"data":[0,0,0,0,0,0,0,0,0,0,0,0,0,0,0,0,0,0,0,0,0,0,0,0,0,0,0,0,0,0,0,0,0,0,0,0,0,0,0,0,0,0,0,0,0,0,0,0,0,0,0,0,0,0,0,0,0,0,-0.2909,-0.291,0,-0.3011,-0.3012,-0.3013,-0.3075,-0.3076,-0.3076,-0.3076,-0.3181,-0.3183,-0.3185,0,0,0,0,0,0,0,0,0,0,0,0,0,-0.2766,-0.2768,-0.2909,-0.291,-0.2911,-0.3011,-0.3012,-0.3014,-0.3075,-0.3076,-0.3076,-0.3076,-0.318,-0.3183,-0.3186,0,0,0,0,0,0,0,0,0,0,0,0,0,-0.2844,-0.2769,-0.2908,-0.2954,-0.2959,-0.3011,-0.3012,-0.3014,-0.3075,-0.3076,-0.3076,-0.3077,-0.3179,-0.3182,-0.3186,-0.32,0,0,-0.3197,-0.3199,0,0,0,0,0,0,0,0,-0.2839,-0.2849,-0.2946,-0.2951,-0.2957,-0.3031,-0.3,-0.3076,-0.3075,-0.3031,-0.3076,-0.3077,-0.313,-0.3138,-0.3156,-0.3205,-0.3209,-0.3198,-0.32,-0.3202,-0.3203,0,0,0,0,0,0,0,-0.2834,-0.2845,-0.2949,-0.2947,-0.2954,-0.2969,-0.2981,-0.3015,-0.3077,-0.3035,-0.304,-0.3051,-0.3133,-0.3153,-0.3159,-0.3211,-0.3198,-0.3201,-0.3203,-0.3205,-0.3277,-0.3276,0,0,0,0,0,0,-0.2821,-0.284,-0.2946,-0.2952,-0.2898,-0.2971,-0.2984,-0.3007,-0.3077,-0.3088,-0.3051,-0.3054,-0.3146,-0.3155,-0.3163,-0.3184,-0.3202,-0.3205,-0.3207,-0.3277,-0.3277,-0.3276,0,0,0,0,0,0,-0.2818,-0.283,-0.2942,-0.2897,-0.2913,-0.2973,-0.2998,-0.3008,-0.3028,-0.3089,-0.31,-0.3059,-0.3147,-0.3158,-0.3191,-0.3189,-0.3207,-0.321,-0.3277,-0.3277,-0.3277,-0.3227,0,0,0,0,0,0,-0.2814,-0.2829,-0.2835,-0.2897,-0.2915,-0.2967,-0.2998,-0.301,-0.3034,-0.3039,-0.3099,-0.311,-0.3148,-0.3185,-0.3194,-0.3194,-0.3213,-0.3278,-0.3277,-0.3277,-0.3229,-0.3225,-0.3221,0,0,0,0,0,-0.2808,-0.2816,-0.2835,-0.2847,-0.2924,-0.2967,-0.2977,-0.3021,-0.3034,-0.304,-0.3079,-0.3108,-0.3187,-0.3187,-0.3199,-0.32,-0.3278,-0.3277,-0.3277,-0.3231,-0.3225,-0.3221,0,0,0,0,0,0,-0.2752,-0.2825,-0.2846,-0.2875,-0.2914,-0.2978,-0.2987,-0.3015,-0.3051,-0.3054,-0.3107,-0.312,-0.3148,-0.3177,-0.3176,-0.3218,-0.3236,-0.3238,-0.3197,-0.3193,-0.3189,-0.3181,-0.3216,0,0,0,0,0,-0.2742,-0.2772,-0.2835,-0.2854,-0.2872,-0.2926,-0.2947,-0.2977,-0.302,-0.3037,-0.3079,-0.3119,-0.3153,-0.3175,-0.321,-0.3234,-0.3248,-0.324,-0.3236,-0.3233,-0.3233,-0.3248,-0.3246,-0.3274,-0.3274,-0.3274,0,0,-0.2724,-0.2768,-0.2783,-0.2843,-0.2878,-0.2907,-0.294,-0.2969,-0.2991,-0.3042,-0.3075,-0.3107,-0.3155,-0.3184,-0.3198,-0.3209,-0.3228,-0.3232,-0.3228,-0.3231,-0.3247,-0.3244,-0.3242,-0.3273,-0.3273,-0.3274,0,0,-0.2705,-0.2741,-0.2761,-0.2795,-0.2846,-0.2882,-0.2886,-0.2946,-0.2969,-0.3003,-0.3042,-0.3069,-0.3127,-0.316,-0.3184,-0.3178,-0.3205,-0.3188,-0.3167,-0.3181,-0.3179,-0.3177,-0.3175,-0.3174,-0.3188,-0.3188,-0.3188,0,-0.2675,-0.2721,-0.2768,-0.2795,-0.282,-0.2868,-0.2888,-0.2918,-0.2978,-0.2995,-0.3006,-0.308,-0.3116,-0.3153,-0.3151,-0.317,-0.3177,-0.3181,-0.3176,-0.3174,-0.3173,-0.3172,-0.3171,-0.3185,-0.3186,-0.3186,-0.3186,0,-0.2681,-0.2712,-0.2722,-0.2779,-0.2806,-0.283,-0.288,-0.2901,-0.293,-0.2964,-0.2999,-0.3044,-0.3089,-0.31,-0.3127,-0.314,-0.3146,-0.3166,-0.3185,-0.3167,-0.3167,-0.3167,-0.3182,-0.3183,-0.3184,-0.3184,0,0,-0.2629,-0.2712,-0.2715,-0.2742,-0.2802,-0.2827,-0.2853,-0.2897,-0.2914,-0.2954,-0.2977,-0.3025,-0.3044,-0.3071,-0.3103,-0.3115,-0.3108,-0.3134,-0.3136,-0.3128,-0.3125,-0.311,-0.3108,-0.3126,-0.3126,-0.3126,-0.3121,0,-0.2619,-0.2668,-0.2711,-0.2744,-0.2774,-0.2819,-0.2842,-0.2881,-0.2914,-0.2943,-0.298,-0.3013,-0.3035,-0.3052,-0.3066,-0.3105,-0.3108,-0.3106,-0.3148,-0.3149,-0.3134,-0.3108,-0.3092,-0.3084,-0.3121,-0.3121,-0.3121,0,-0.2614,-0.2652,-0.2688,-0.2745,-0.2759,-0.2779,-0.2823,-0.285,-0.2896,-0.2919,-0.295,-0.2983,-0.3013,-0.3029,-0.3071,-0.3069,-0.3088,-0.311,-0.3111,-0.3117,-0.3134,-0.3113,-0.3083,-0.3082,-0.3121,-0.3121,-0.3121,0,-0.2572,-0.2633,-0.2662,-0.2683,-0.2751,-0.2764,-0.2793,-0.2839,-0.2862,-0.2901,-0.2917,-0.2958,-0.2981,-0.3012,-0.3056,-0.3064,-0.3092,-0.3112,-0.3112,-0.3111,-0.3116,-0.3115,-0.3089,-0.3128,-0.3128,-0.3129,-0.3129,0,-0.2556,-0.2577,-0.2644,-0.2662,-0.2686,-0.2736,-0.2758,-0.2791,-0.2831,-0.2857,-0.2898,-0.2921,-0.2978,-0.3007,-0.3041,-0.307,-0.308,-0.31,-0.3109,-0.3096,-0.3093,-0.311,-0.3111,-0.3128,-0.3128,-0.3128,-0.3128,0,-0.2514,-0.256,-0.2595,-0.2657,-0.2673,-0.2688,-0.274,-0.2759,-0.2795,-0.2826,-0.2836,-0.2892,-0.2929,-0.2975,-0.3027,-0.305,-0.3075,-0.3089,-0.306,-0.3065,-0.3062,-0.3062,-0.3046,-0.3046,-0.3084,-0.3084,-0.3084,0,-0.2501,-0.2518,-0.2581,-0.2601,-0.2628,-0.266,-0.2685,-0.2734,-0.2758,-0.2811,-0.2824,-0.2864,-0.2898,-0.2955,-0.3,-0.304,-0.3055,-0.3047,-0.3061,-0.3048,-0.3055,-0.3053,-0.3055,-0.3043,-0.3042,-0.3041,-0.3041,0,-0.2472,-0.2495,-0.2529,-0.2571,-0.2599,-0.2634,-0.2671,-0.2685,-0.2742,-0.2767,-0.2805,-0.2832,-0.2885,-0.2924,-0.297,-0.3,-0.303,-0.3036,-0.3038,-0.3025,-0.3008,-0.3017,-0.305,-0.3036,-0.3037,-0.3037,-0.3037,-0.3037,-0.2445,-0.2462,-0.2509,-0.2545,-0.2578,-0.2612,-0.2633,-0.2671,-0.2704,-0.2751,-0.2778,-0.2816,-0.2861,-0.2926,-0.2954,-0.2984,-0.2995,-0.2998,-0.2999,-0.2999,-0.2995,-0.3003,-0.2993,-0.2993,-0.2993,-0.2993,-0.2993,0,-0.2419,-0.2451,-0.2484,-0.2535,-0.2564,-0.259,-0.2632,-0.2654,-0.2687,-0.2727,-0.276,-0.2804,-0.2842,-0.289,-0.2932,-0.2947,-0.2962,-0.2956,-0.2955,-0.2962,-0.2983,-0.2977,-0.2943,-0.2943,-0.2943,-0.2943,-0.2943,-0.2943,-0.2408,-0.2438,-0.2466,-0.2513,-0.2546,-0.2583,-0.2605,-0.2636,-0.2668,-0.2716,-0.2748,-0.2779,-0.2822,-0.2867,-0.2904,-0.2917,-0.293,-0.292,-0.2938,-0.2956,-0.296,-0.2965,-0.2959,-0.2923,-0.2923,-0.2915,-0.2914,-0.2914]},{"header":{"parameterUnit":"m.s-1","parameterCategory":1,"la1":30.2991,"la2":30.254,"lo1":-89.0895,"lo2":-89.0444,"dy":0.0017,"dx":0.0017,"nx":28,"ny":28,"refTime":"2024-02-26T09:00:00:Z","depth":0,"parameterNumber":3,"parameterNumberName":"V-component_of_WINDS"},"data":[0,0,0,0,0,0,0,0,0,0,0,0,0,0,0,0,0,0,0,0,0,0,0,0,0,0,0,0,0,0,0,0,0,0,0,0,0,0,0,0,0,0,0,0,0,0,0,0,0,0,0,0,0,0,0,0,0,0,5.1946,5.1946,0,5.1966,5.1967,5.1967,5.1928,5.1927,5.1926,5.1924,5.195,5.1952,5.1954,0,0,0,0,0,0,0,0,0,0,0,0,0,5.1879,5.188,5.1946,5.1946,5.1947,5.1966,5.1967,5.1967,5.1928,5.1927,5.1925,5.1924,5.1949,5.1951,5.1954,0,0,0,0,0,0,0,0,0,0,0,0,0,5.1905,5.1881,5.1946,5.193,5.1928,5.1966,5.1967,5.1967,5.1929,5.1927,5.1925,5.1923,5.1949,5.1951,5.1954,5.201,0,0,5.1963,5.1964,0,0,0,0,0,0,0,0,5.1903,5.1907,5.1932,5.1931,5.1929,5.1943,5.1952,5.1982,5.1929,5.1929,5.1924,5.1922,5.1949,5.1952,5.196,5.2011,5.2012,5.1963,5.1965,5.1966,5.1967,0,0,0,0,0,0,0,5.1902,5.1906,5.1954,5.1932,5.1931,5.1923,5.1924,5.1958,5.195,5.1929,5.1926,5.1929,5.1948,5.1958,5.196,5.2013,5.1963,5.1965,5.1967,5.1968,5.2114,5.2116,0,0,0,0,0,0,5.1901,5.1905,5.1954,5.1955,5.1911,5.1926,5.1927,5.194,5.1949,5.1949,5.193,5.1927,5.1954,5.1957,5.1961,5.203,5.1966,5.1968,5.197,5.2112,5.2114,5.2117,0,0,0,0,0,0,5.19,5.1906,5.1953,5.1929,5.1934,5.1929,5.1944,5.1942,5.1951,5.195,5.1949,5.1941,5.1952,5.1957,5.1999,5.203,5.197,5.1972,5.2109,5.2112,5.2115,5.2165,0,0,0,0,0,0,5.1898,5.1906,5.1926,5.193,5.1936,5.1988,5.1946,5.1944,5.1955,5.1951,5.196,5.196,5.1951,5.1995,5.2001,5.2033,5.1974,5.2106,5.2111,5.2114,5.2161,5.217,5.2178,0,0,0,0,0,5.1896,5.1939,5.1927,5.1933,5.1961,5.199,5.1994,5.1982,5.1958,5.1979,5.1979,5.1959,5.2025,5.1999,5.2006,5.2039,5.2104,5.2109,5.2114,5.2157,5.2168,5.2177,0,0,0,0,0,0,5.1941,5.194,5.1926,5.1972,5.1981,5.1983,5.201,5.1993,5.2011,5.2006,5.1992,5.1994,5.2039,5.2043,5.2014,5.2095,5.2061,5.2068,5.2091,5.2102,5.211,5.2109,5.1977,0,0,0,0,0,5.1955,5.1978,5.1976,5.2017,5.2023,5.2015,5.2028,5.2018,5.2027,5.2032,5.2034,5.2046,5.207,5.2085,5.2107,5.2161,5.2164,5.2187,5.2195,5.2202,5.2209,5.224,5.2251,5.2133,5.2133,5.2133,0,0,5.1987,5.1989,5.2005,5.2026,5.2032,5.2058,5.2019,5.2047,5.2067,5.2036,5.2076,5.2078,5.2091,5.2139,5.2161,5.2144,5.2242,5.2208,5.2214,5.2217,5.2246,5.2258,5.2268,5.2136,5.2135,5.2135,0,0,5.2058,5.2061,5.2096,5.2103,5.2112,5.2107,5.2116,5.2121,5.2121,5.216,5.2138,5.2162,5.2202,5.2212,5.2223,5.2299,5.2283,5.2306,5.2351,5.2381,5.2391,5.2399,5.2429,5.2439,5.2312,5.2312,5.2312,0,5.2097,5.2133,5.2117,5.2147,5.2158,5.213,5.2167,5.2175,5.2192,5.2201,5.2181,5.2232,5.2238,5.229,5.2308,5.2317,5.2328,5.2306,5.239,5.2399,5.2406,5.2434,5.2445,5.2315,5.2315,5.2315,5.2314,0,5.2181,5.2207,5.2234,5.225,5.2264,5.2298,5.2288,5.2305,5.2294,5.2291,5.2333,5.2339,5.2362,5.2373,5.2363,5.2424,5.2414,5.2392,5.2358,5.2421,5.2447,5.2458,5.232,5.2319,5.2318,5.2317,0,0,5.2283,5.2289,5.2299,5.2307,5.2315,5.2336,5.2369,5.239,5.2405,5.2418,5.2447,5.2481,5.2462,5.2474,5.2465,5.2491,5.2554,5.2467,5.2467,5.2485,5.2626,5.2644,5.2656,5.2543,5.2545,5.2546,5.2626,0,5.2355,5.241,5.2397,5.2453,5.2478,5.2452,5.2481,5.249,5.2489,5.2511,5.2511,5.2536,5.2507,5.2515,5.254,5.2541,5.2583,5.2535,5.2573,5.2574,5.2573,5.2669,5.2688,5.2763,5.2636,5.2637,5.2638,0,5.2447,5.2462,5.252,5.2526,5.2536,5.2562,5.2581,5.2602,5.2613,5.2611,5.2624,5.261,5.2645,5.2609,5.2659,5.2626,5.2641,5.2644,5.2647,5.2652,5.2612,5.268,5.2786,5.2799,5.2654,5.2653,5.2652,0,5.2519,5.2553,5.2593,5.26,5.2607,5.2626,5.263,5.2639,5.2653,5.267,5.268,5.2701,5.2714,5.2732,5.2725,5.2699,5.2778,5.274,5.2779,5.278,5.2799,5.2798,5.2912,5.2804,5.2804,5.2803,5.2803,0,5.2602,5.264,5.2625,5.265,5.2691,5.2676,5.2718,5.272,5.2728,5.2754,5.2732,5.2758,5.2746,5.2771,5.2766,5.2809,5.2814,5.2816,5.2814,5.2819,5.2819,5.283,5.2826,5.2806,5.2806,5.2805,5.2805,0,5.269,5.2681,5.2723,5.2726,5.2728,5.2759,5.2762,5.2786,5.2783,5.2817,5.2824,5.282,5.2849,5.2842,5.2874,5.2871,5.2926,5.2917,5.2923,5.2921,5.2962,5.2959,5.3088,5.3106,5.2984,5.2985,5.2986,0,5.2746,5.2773,5.2779,5.2794,5.28,5.2824,5.2838,5.2825,5.2841,5.2856,5.2879,5.2905,5.2926,5.2974,5.2975,5.3,5.2993,5.3037,5.2997,5.3002,5.2997,5.2997,5.3001,5.3045,5.3047,5.3048,5.3049,0,5.2846,5.284,5.286,5.288,5.2897,5.2912,5.2925,5.2939,5.2927,5.2946,5.2974,5.299,5.3022,5.305,5.3073,5.308,5.3064,5.3061,5.3072,5.3078,5.3081,5.3083,5.2947,5.3059,5.3058,5.3057,5.3056,5.3056,5.2921,5.2945,5.2953,5.2977,5.2985,5.2998,5.3021,5.3021,5.3044,5.3068,5.3058,5.3092,5.3104,5.3133,5.3142,5.317,5.3154,5.3169,5.3173,5.3178,5.3184,5.3075,5.3173,5.3173,5.3173,5.3173,5.3172,0,5.3023,5.3026,5.3048,5.3067,5.3086,5.3066,5.308,5.3098,5.3127,5.3139,5.3159,5.3193,5.322,5.3223,5.3249,5.3271,5.3264,5.3278,5.3278,5.3281,5.3195,5.3185,5.3283,5.3283,5.3283,5.3283,5.3283,5.3283,5.3078,5.3119,5.3114,5.316,5.3163,5.3195,5.3204,5.3217,5.3226,5.3265,5.3286,5.3287,5.3296,5.3323,5.3348,5.3348,5.336,5.3378,5.3376,5.3297,5.3286,5.3276,5.3266,5.338,5.338,5.3459,5.346,5.3461]}]]